Location: Corcelles
(46.1547°N, 4.7234°E)
Time: 20:18:51
(UTC+00:00)

Cosmos 1378 Rocket - Pass Details

Date: 14 July 2020
Orbit: 602 x 626 km, 82.5° (Epoch: 14 August)

Event Time Altitude Azimuth Distance (km) Brightness Sun altitude
Rises 02:16:22 0° 353° (N) 2,900 7.8 -14.3°
Reaches altitude 10° 02:18:37 10° 356° (N) 1,994 6.9 -14.0°
Maximum altitude 02:23:01 67° 80° (E) 679 3.9 -13.6°
Drops below altitude 10° 02:27:25 10° 163° (SSE) 1,990 5.8 -13.1°
Enters shadow 02:28:31 - 164° (SSE) 2,433 6.3 -13.0°
